Location: Dunedin
(45.8670°S, 170.5000°E)
Time: 13:42:22
(UTC+13:00)

ISS - Pass Details

Date: 01 February 2019
Orbit: 403 x 411 km, 51.6° (Epoch: 20 February)

Event Time Altitude Azimuth Distance (km) Brightness Sun altitude
Exits shadow 05:20:13 18° 322° (NW) 1,114 -2.2 -11.2°
Maximum altitude 05:22:32 53° 34° (NE) 521 -3.3 -10.9°
Drops below altitude 10° 05:25:49 10° 111° (ESE) 1,499 0.4 -10.4°
Sets 05:27:56 0° 116° (ESE) 2,365 2.0 -10.1°
